Regional Weather Roundup
Issued by NWS Pendleton, OR

Home | Current Version | Previous Version | Text Only | Print | Product List | Glossary On
Versions: 1 2 3 4 5 6 7 8 9 10 11 12 13 14 15 16 17 18 19 20 21 22 23 24 25 26 27 28 29 30 31 32 33 34 35 36 37 38 39 40 41 42 43 44 45 46 47 48 49 50
477
ASUS46 KPDT 041225
RWRPDT
PENDLETON REGIONAL WEATHER ROUNDUP
NATIONAL WEATHER SERVICE PENDLETON OREGON
500 AM PDT WED MAY 4 2016

NOTE: FAIR INDICATES FEW OR NO CLOUDS BELOW 12,000 FEET WITH NO
SIGNIFICANT WEATHER AND/OR OBSTRUCTIONS TO VISIBILITY.

# INDICATES UNOFFICIAL STATION AND DATA

WAZ520-041310-
EAST SLOPES OF WASHINGTON CASCADES

CITY            SKY/WX      TMP DP  RH  WIND    PRES   REMARKS
#CLE ELUM HS    N/A         48  47  96  CALM    29.96R
#CLE ELUM 2NW   N/A         48  47  96  S1      N/A
#CLE ELUM LAKE  N/A         46  45  96  E1      29.93S
#GLENWOOD       N/A         51  49  93  CALM    29.94F
#MANASTASH CYN  N/A         54  54  100 CALM    29.98S
#NELSON 3SW     N/A         46  45  96  CALM    30.13F
#NILE           N/A         48  47  96  CALM    29.24F
#RONALD 2NW     N/A         48  N/A N/A CALM    29.90S
#TEANAWAY 4NE   N/A         50  50  100 CALM    N/A
#TROUT LAKE 1NE N/A         52  49  89  CALM    29.93F
#TROUT LAKE 1E  N/A         52  49  89  CALM    29.96F
$$

WAZ521-041310-
SIMCOE HIGHLANDS

CITY            SKY/WX      TMP DP  RH  WIND    PRES   REMARKS
#BICKLETON HS   N/A         57  36  45  W7      N/A
#CENTERVILLE 1SWN/A         49  45  86  CALM    29.91F
#GOLDENDALE 1NE N/A         53  44  71  CALM    N/A
#GOODNOE HILLS  N/A         59  51  75  S6      29.87F
#LYLE 6NE       N/A         53  50  89  S2      29.92F
$$

WAZ026-041310-
KITTITAS VALLEY

CITY            SKY/WX      TMP DP  RH  WIND    PRES   REMARKS
ELLENSBURG AP   MOCLDY      55  48  77  NW10    29.98S
6HR MIN TEMP:   55; 6HR MAX TEMP:   61; 6HR PCP:  0.02;

YTC-OPS AREA    MOCLDY      50  47  89  SW17    30.00R
6HR MIN TEMP:   50; 6HR MAX TEMP:   57; 6HR PCP:  0.01;

#ELLENSBURG 3NE N/A         53  49  86  NW3     29.98S
#ELLENSBURG     N/A         57  53  86  NW2     N/A
#KITTITAS 3S    N/A         50  48  93  CALM    29.93R
#THORP 6N       N/A         50  48  93  N9      29.94S
$$

WAZ027-041310-
YAKIMA VALLEY

CITY            SKY/WX      TMP DP  RH  WIND    PRES   REMARKS
SUNNYSIDE AP    MOCLDY      56  51  83  CALM    29.98R
YAKIMA AIRPORT  MOCLDY      59  49  69  CALM    29.98R
6HR MIN TEMP:   58; 6HR MAX TEMP:   66; 6HR PCP:  TRACE;

YAKIMA-VAGABOND MOCLDY      56  50  80  SE1     29.96S
6HR MIN TEMP:   55; 6HR MAX TEMP:   63; 6HR PCP:  0.02;

#DONALD 2NE     N/A         63  32  31  NW1     28.82R
#GRANDVIEW      N/A         61  49  65  CALM    29.96R
#NACHES 2SW     N/A         56  49  77  W9      29.99R
#TERRACE HTS    N/A         58  49  72  CALM    29.90R
#TOPPENISH      N/A         62  50  65  CALM    29.86R
#WEST VALLEY    N/A         57  49  75  CALM    29.92R
#W YAKIMA       N/A         58  49  72  N1      29.93S
#WHITE SWAN 5E  N/A         61  51  70  CALM    29.94R
#WILEY CITY 3W  N/A         54  46  74  CALM    29.95R
$$

WAZ028-041310-
LOWER COLUMBIA BASIN...WASHINGTON

CITY            SKY/WX      TMP DP  RH  WIND    PRES   REMARKS
HANFORD         MOCLDY      63  48  58  SE7     29.95R
PASCO           CLOUDY      66  48  52  SW12    29.98R
6HR MIN TEMP:   64; 6HR MAX TEMP:   72; 6HR PCP:  TRACE;

PROSSER AWOS    N/A         61  50  67  NW2     30.00R
RICHLAND AWOS   CLOUDY      66  51  58  SW6     29.97S
#BENTON CITY    N/A         61  50  67  NW5     29.85R
#CONNELL 5N     N/A         56  48  74  CALM    29.93R
#CONNELL 5NW    N/A         57  50  77  S2      29.89S
#ELTOPIA 6NW    N/A         60  52  75  CALM    28.94S
#KAHLOTUS       N/A         59  48  67  W9      29.93R
#KENNEWICK 3S   N/A         61  50  67  N8      29.93S
#PATERSON       N/A         60  51  72  W12     29.95S
#SAGEMOOR 2W    N/A         60  51  72  CALM    29.79S
#TOUCHET 2S     N/A         55  50  83  CALM    29.94R
#WEST PASCO     N/A         64  49  58  SW1     30.02S
$$

WAZ029-041310-
FOOTHILLS OF THE BLUES...WASHINGTON

CITY            SKY/WX      TMP DP  RH  WIND    PRES   REMARKS
WALLA WALLA AP  CLOUDY      60  47  62  E5      29.98F
6HR MIN TEMP:   60; 6HR MAX TEMP:   70; 6HR PCP:  TRACE;

#CLYDE 6NW      N/A         57  47  69  SW2     29.93S
#DAYTON SCHOOL  N/A         59  42  53  E2      30.00F
#LOWDEN 2SE     N/A         54  50  86  CALM    29.94S
#PLEASANT VIEW 1N/A         58  46  64  S7      29.96S
#PRESCOTT       N/A         54  50  86  CALM    29.93S
#SUDBURY        N/A         74  N/A N/A CALM    N/A
#WHITMAN COLLEGEN/A         60  48  64  CALM    29.98S
#WAITSBURG 5S   N/A         56  46  69  CALM    30.01S
#WAITSBURG 8N   N/A         55  23  29  N2      29.79F
#WALLA WALLA U  N/A         61  49  65  CALM    29.94S
#WHITMAN MISSIONN/A         55  50  83  CALM    29.97R
$$

WAZ030-041310-
BLUE MOUNTAINS...WASHINGTON

CITY            SKY/WX      TMP DP  RH  WIND    PRES   REMARKS
#DIXIE 5SE      N/A         58  43  57  E1      29.96F
$$

ORZ009-041-WAZ024-041310-
COLUMBIA RIVER GORGE

CITY            SKY/WX      TMP DP  RH  WIND    PRES   REMARKS
HOOD RIVER AP   MOCLDY      54  50  86  CALM    29.99R
THE DALLES AP   MOCLDY      59  50  72  CALM    29.97F
6HR MIN TEMP:   57; 6HR MAX TEMP:   66;

#ARLINGTON AIRPON/A         58  50  75  CALM    29.94F
#CELILO DOT     N/A         59  49  69  S2      N/A
#MARYHILL 2W    N/A         58  52  80  W1      N/A
#MOSIER 1S      N/A         55  43  64  CALM    29.97F
#MURDOCK        N/A         59  51  75  NW3     29.94F
#RUFUS DOT      N/A         61  52  72  SE1     N/A

$$

ORZ510-041310-
NORTH CENTRAL OREGON

CITY            SKY/WX      TMP DP  RH  WIND    PRES   REMARKS
#ANTELOPE       N/A         48  45  89  CALM    29.78F
#COW CYN RST AREN/A         50  48  93  E1      N/A
#DUFUR 9E       N/A         54  47  77  CALM    29.97F
#GRASS VALLEY   N/A         49  49  100 CALM    N/A
#KENT DOT       N/A         52  46  80  N3      N/A
#MAUPIN SCHOOL  N/A         57  51  80  CALM    30.01S
#MORO SCHOOL    N/A         52  51  96  CALM    29.98F
#SHANIKO 5WSW   N/A         50  43  77  NE10    N/A
#TYGH VALLEY 2NEN/A         54  50  86  CALM    29.94R
#WAPANITIA AIRPON/A         51  47  86  CALM    29.95F
#WASCO DOT      N/A         55  51  86  SE3     N/A
#WASCO AIRPORT  N/A         55  48  77  CALM    N/A
#WASCO 5NE      N/A         51  47  86  CALM    29.92F
$$

ORZ511-041310-
CENTRAL OREGON

CITY            SKY/WX      TMP DP  RH  WIND    PRES   REMARKS
BEND AIRPORT    CLOUDY      48  43  83  CALM    30.01F
MADRAS AIRPORT  MOCLDY      46  46  100 CALM    30.01F FOG
PRINEVILLE AP   CLOUDY      46  45  96  SW5     30.01F
REDMOND AIRPORT CLOUDY      48  44  86  CALM    30.01F
6HR MIN TEMP:   47; 6HR MAX TEMP:   54; 6HR PCP:  TRACE;

#ASHWOOD SCHOOL N/A         50  47  89  CALM    29.96F
#BEND 1SW       N/A         46  42  86  CALM    N/A
#BEND-AWBREY    N/A         48  43  83  CALM    29.91F
#BEND-KIM LN    N/A         49  44  83  CALM    29.99F
#CULVER         N/A         48  45  89  CALM    29.88F
#LAKE BILLY CHINN/A         50  N/A N/A CALM    30.07F
#POWELL BUTTE   N/A         50  42  74  CALM    29.88F
#PRINEVILLE 3N  N/A         48  46  93  E2      29.91F
#WARM SPRINGS   N/A         51  48  89  CALM    29.96F

$$


ORZ509-041310-
EAST SLOPES OF OREGON CASCADES

CITY            SKY/WX      TMP DP  RH  WIND    PRES   REMARKS
SISTERS AWOS    N/A         46  43  89  CALM    30.00F
#BLUE BOX PASS  N/A         45  N/A N/A E1      N/A
#BLACK BUTTE RNCN/A         46  43  89  CALM    29.93F
#CAMP SHERMAN   N/A         46  42  86  CALM    30.03R
#LA PINE DOT    N/A         45  42  89  NW3     N/A
#LA PINE 4NW    N/A         42  38  86  CALM    29.97F
#LAVA BUTTE DOT N/A         43  41  93  CALM    N/A
#SISTERS AIRPOR N/A         45  45  100 CALM    30.17S
#SISTERS ODOT   N/A         45  N/A N/A CALM    N/A
#SISTERS 1NW    N/A         45  42  89  VRB5    N/A
#SISTERS 3N     N/A         44  38  79  CALM    30.03S
#SUNRIVER       N/A         44  42  93  CALM    29.94F
#SUTTLE LK DOT  N/A         41  41  100 E2      N/A
#TUMALO 3W      N/A         49  42  77  E5      29.80F
#WANOGA BUTTE D N/A         44  37  76  CALM    N/A

$$

ORZ044-041310-
LOWER COLUMBIA BASIN...OREGON

CITY            SKY/WX      TMP DP  RH  WIND    PRES   REMARKS
HERMISTON       CLOUDY      65  49  56  SW12    29.99R
6HR MIN TEMP:   62; 6HR MAX TEMP:   69; 6HR PCP:  TRACE;

#BOARDMAN SCHOOLN/A         63  50  62  SW9     29.98S
#BOARDMAN 8SW   N/A         62  51  67  SW3     29.94F
#ECHO 8SW       N/A         62  49  62  W5      30.00S
#I-84 EX 198 DOTN/A         59  45  60  E5      N/A
#UMATILLA SCHOOLN/A         61  56  84  CALM    30.02F
#UMATILLA       N/A         62  48  60  CALM    29.91R
$$

ORZ507-041310-
NORTHERN FOOTHILLS OF THE BLUES

CITY            SKY/WX      TMP DP  RH  WIND    PRES   REMARKS
PENDLETON AIRPT CLOUDY      57  44  62  CALM    30.00R
6HR MIN TEMP:   54; 6HR MAX TEMP:   67;

#ADAMS 3WNW     N/A         53  46  77  CALM    29.94R
#ATHENA         N/A         53  47  80  CALM    29.96R
#CAYUSE         N/A         55  46  72  E2      29.93R
#HELIX SCHOOL   N/A         52  46  80  CALM    29.93R
#HELIX 3N       N/A         56  46  69  N5      29.98S
#HOLDMAN 5SE    N/A         57  49  75  W3      30.00R
#HOLDMAN 6E     N/A         56  46  69  CALM    29.76R
#M-F FERNDALE   N/A         60  46  60  CALM    29.97S
#M-F GROVE ELEM N/A         59  45  60  CALM    29.98R
#M-FREEWATER 5SEN/A         60  46  60  CALM    29.99S
#PENDLETON DNTN N/A         56  41  57  CALM    30.04R
#PDT AQUATIC CTRN/A         57  37  47  CALM    30.02S
#PDT SUNRIDGE   N/A         53  46  77  CALM    30.02R
#PENDLETON 7NW  N/A         55  45  69  CALM    31.80S
#PILOT ROCK     N/A         54  42  64  CALM    30.02R
#TUTUILLA       N/A         52  46  80  CALM    29.97R
#UMAPINE 2E     N/A         58  50  75  CALM    29.96R
#WESTON SCHOOL  N/A         58  43  57  W1      29.93R

$$

ORZ508-041310-
SOUTHERN FOOTHILLS OF THE BLUES

CITY            SKY/WX      TMP DP  RH  WIND    PRES   REMARKS
#AJAX           N/A         54  44  69  N3      27.73F
#CONDON SCHOOL  N/A         53  50  89  N3      29.96F
#CONDON 5W      N/A         51  45  80  E3      29.98F
#FOSSIL SCHOOL  N/A         55  49  80  CALM    29.94F
#HEPPNER EOC    N/A         55  46  72  E3      29.87F
#HEPPNER 4NE    N/A         54  46  74  S1      29.93F
#LEXINGTON 2SE  N/A         61  49  65  CALM    29.96F
#OLEX 4N        N/A         58  51  77  E1      29.95F
#RUGGS 5NE      N/A         53  46  77  S2      30.20S
#RUGGS 2SW      N/A         54  47  77  E2      29.93F

$$

ORZ502-503-041310-
BLUE MOUNTAINS

CITY            SKY/WX      TMP DP  RH  WIND    PRES   REMARKS
MEACHAM         MOCLDY      46  41  83  CALM    30.06S
6HR MIN TEMP:   46; 6HR MAX TEMP:   59; 6HR PCP:  TRACE;

#BATTLE MTN DOT N/A         48  47  96  CALM    N/A
#GREENHORN 9SW  N/A         47  42  83  CALM    26.26R
#HARDMAN 10S    N/A         61  34  36  N5      30.22S
#HEPPNER 15SE   N/A         46  42  86  CALM    25.59S
#LADD CYN SMT   N/A         50  39  66  CALM    N/A
#LADD CREEK ODOTN/A         53  43  69  SW3     N/A
#LONG CREEK HS  N/A         50  47  89  CALM    N/A
#N POWDER DOT   N/A         51  43  74  SW3     N/A
#PIKES PEAK     N/A         56  41  57  CALM    27.99S
#TOLLGATE       N/A         46  40  79  N1      29.93F
#TROY SCHOOL    N/A         52  45  77  CALM    29.82R
#UKIAH          N/A         47  42  83  CALM    29.88S
#WESTON 4E      N/A         55  43  64  CALM    29.88S
$$

ORZ505-041310-
JOHN DAY BASIN

CITY            SKY/WX      TMP DP  RH  WIND    PRES   REMARKS
JOHN DAY        PTCLDY      54  44  69  CALM    30.05F
#DAYVILLE SCHOOLN/A         56  43  62  CALM    29.98F
#MITCHELL       N/A         56  49  77  CALM    30.13F
#MITCHELL 8NW   N/A         53  45  74  SW3     30.07F
#MONUMENT HS    N/A         54  46  74  CALM    29.93F
#MT. VERNON 5SE N/A         53  43  69  CALM    30.01F
#SPRAY SCHOOL   N/A         56  N/A N/A CALM    N/A
#WINLOCK        N/A         53  47  80  W2      29.99F
$$

ORZ506-041310-
OCHOCO AND JOHN DAY HIGHLANDS

CITY            SKY/WX      TMP DP  RH  WIND    PRES   REMARKS
#BUCK CREEK DOT N/A         53  43  69  CALM    N/A
#HORSE RIDGE DO N/A         47  41  79  SE2     N/A
#KEYES SMT DOT  N/A         55  41  59  NW6     N/A
#PAULINA SCHOOL N/A         72  35  26  CALM    29.25F
#PINE MTN OBS   N/A         46  38  73  S5      N/A
#PRAIRIE CITY   N/A         49  44  83  CALM    30.02R
#SENECA         N/A         49  N/A N/A CALM    N/A
#SENECA 9NW     N/A         46  40  79  CALM    29.90F
$$

ORZ049-041310-
GRANDE RONDE VALLEY

CITY            SKY/WX      TMP DP  RH  WIND    PRES   REMARKS
LA GRANDE       CLOUDY      54  37  52  NW6     30.01F
#COVE           N/A         53  47  80  S1      30.04F
#COVE SCHOOL    N/A         53  45  74  CALM    30.03F
#COVE 6NW       N/A         50  43  77  CALM    29.89F
#ELGIN 3N       N/A         51  42  71  CALM    29.99F
#ELGIN 1E       N/A         51  43  74  CALM    N/A
#ISLAND CITY 4N N/A         50  49  96  CALM    30.04F
#LADD CYN DOT   N/A         56  43  62  SE6     N/A
#LA GRANDE ELEM N/A         60  43  53  W10     30.03F
#UNION 1S       N/A         55  43  64  CALM    29.83F
$$

ORZ050-041310-
WALLOWA COUNTY

CITY            SKY/WX      TMP DP  RH  WIND    PRES   REMARKS
JOSEPH AIRPORT  MOCLDY      48  36  63  S3      30.08S
#ENTERPRISE AP  N/A         49  29  46  CALM    29.99F
#ENTERPRISE HS  N/A         46  40  79  CALM    30.07F
#IMNAHA SCHOOL  N/A         50  43  77  S3      30.03R
#IMNAHA 10S     N/A         50  39  66  SW5     30.04R
#JOSEPH 3N      N/A         42  35  76  CALM    30.08F
#JOSEPH 3W      N/A         47  38  71  SW1     29.91F
#LOSTINE        N/A         47  39  74  CALM    29.77F
#MT HOWARD 8000 N/A         46  28  49  S6      30.19F
#PROMISE 1S     N/A         50  43  77  CALM    30.01S
#WALLOWA SCHOOL N/A         44  39  82  CALM    30.01F



$$



USA.gov is the U.S. government's official web portal to all federal, state and local government web resources and services.